Punkttermin-Prognose für Emden
Modell: MOSMIX (Deutscher Wetterdienst)
Modelllaufzeit: 10 UTC
Aktualisierung: stündlich
Montag - 27.05.2019
| Wetter - | Temperaturen | Wind | Niederschlag | Druck | Sonne
Zeit GZ | Bewölkung | TT MAX MIN TG TM | DD FF FX1 | RR1 RR24 | PPPP | SS1 SS24
02:00 Uhr | --- | --- --- --- --- --- | --- --- --- | --- | --- | ---
03:00 Uhr | --- | --- --- --- --- --- | --- --- --- | --- | --- | ---
04:00 Uhr | --- | --- --- --- --- --- | --- --- --- | --- | --- | ---
05:00 Uhr | --- | --- --- --- --- --- | --- --- --- | --- | --- | ---
06:00 Uhr | --- | --- --- --- --- --- | --- --- --- | --- | --- | ---
07:00 Uhr | --- | --- --- --- --- --- | --- --- --- | --- | --- | ---
08:00 Uhr | --- | --- --- --- --- --- | --- --- --- | --- | --- | ---
09:00 Uhr | --- | --- --- --- --- --- | --- --- --- | --- | --- | ---
10:00 Uhr | --- | --- --- --- --- --- | --- --- --- | --- | --- | ---
11:00 Uhr | --- | --- --- --- --- --- | --- --- --- | --- | --- | ---
12:00 Uhr | --- | --- --- --- --- --- | --- --- --- | --- | --- | ---
13:00 Uhr | wolkig | 16 --- --- 20 --- | W 24 --- | 0.0 | 1008 | 0.7
14:00 Uhr | wolkig | 16 --- --- 20 --- | W 24 41 | 0.0 | 1008 | 0.6
15:00 Uhr | wolkig | 16 --- --- 20 --- | W 24 41 | 0.0 | 1008 | 0.6
16:00 Uhr | wolkig | 16 --- --- 18 --- | W 26 41 | 0.0 | 1008 | 0.5
17:00 Uhr | wolkig | 15 --- --- 18 --- | W 24 41 | 0.0 | 1008 | 0.4
18:00 Uhr | wolkig | 15 --- --- 16 --- | W 24 --- | 0.0 | 1007 | 0.4
19:00 Uhr | wolkig | 15 --- --- 16 --- | W 24 --- | 0.0 | 1007 | 0.4
20:00 Uhr | wolkig | 14 17 --- 14 --- | W 20 --- | 0.0 | 1007 | 0.3
21:00 Uhr | wolkig | 14 --- --- 13 --- | W 18 --- | 0.0 | 1007 | 0.3
22:00 Uhr | wolkig | 14 --- --- 12 --- | W 18 --- | 0.0 | 1007 | 0.2
23:00 Uhr | wolkig | 13 --- --- 11 --- | W 18 --- | 0.0 | 1007 | 0.0
00:00 Uhr | wolkig | 12 --- --- 11 --- | W 20 --- | 0.0 | 1007 | 0.0
Dienstag - 28.05.2019
| Wetter - | Temperaturen | Wind | Niederschlag | Druck | Sonne
Zeit GZ | Bewölkung | TT MAX MIN TG TM | DD FF FX1 | RR1 RR24 | PPPP | SS1 SS24
01:00 Uhr | wolkig | 12 --- --- 11 --- | W 20 --- | 0.0 | 1007 | 0.0
02:00 Uhr | stark bewölkt | 12 --- --- 10 --- | W 18 --- | 0.0 | 1007 | 0.0
03:00 Uhr | stark bewölkt | 11 --- --- 10 --- | NW 17 --- | 0.0 | 1007 | 0.0
04:00 Uhr | stark bewölkt | 11 --- --- 10 --- | NW 15 --- | 0.0 | 1007 | 0.0
05:00 Uhr | stark bewölkt | 11 --- --- 10 --- | NW 15 --- | 0.0 | 1007 | 0.0
06:00 Uhr | stark bewölkt | 11 --- --- 10 --- | NW 13 --- | 0.0 | 1007 | 0.0
07:00 Uhr | stark bewölkt | 11 --- --- 11 --- | N 13 --- | 0.0 | 1008 | 0.1
08:00 Uhr | stark bewölkt | 11 --- 10 12 --- | N 13 --- | 0.0 | 1008 | 0.1
09:00 Uhr | stark bewölkt | 12 --- --- 13 --- | N 15 --- | 0.0 | 1008 | 0.2
10:00 Uhr | wolkig | 12 --- --- 15 --- | N 17 --- | 0.0 | 1009 | 0.3
11:00 Uhr | wolkig | 12 --- --- 16 --- | N 18 --- | 0.0 | 1009 | 0.4
12:00 Uhr | wolkig | 12 --- --- 16 --- | N 18 --- | 0.0 | 1009 | 0.4
13:00 Uhr | wolkig | 13 --- --- 17 --- | N 22 --- | 0.0 | 1010 | 0.4
14:00 Uhr | wolkig | 13 --- --- 17 --- | N 24 --- | 0.0 | 1011 | 0.5
15:00 Uhr | wolkig | 13 --- --- 17 --- | N 26 --- | 0.0 | 1011 | 0.5
16:00 Uhr | wolkig | 12 --- --- 16 --- | N 28 --- | 0.0 | 1012 | 0.6
17:00 Uhr | wolkig | 12 --- --- 15 --- | N 30 --- | 0.0 | 1012 | 0.6
18:00 Uhr | wolkig | 12 --- --- 14 --- | N 30 --- | 0.0 | 1013 | 0.6
19:00 Uhr | wolkig | 11 --- --- 13 --- | N 32 --- | 0.0 | 1014 | 0.6
20:00 Uhr | wolkig | 11 14 --- 11 --- | N 30 --- | 0.0 | 1014 | 0.5
21:00 Uhr | wolkig | 10 --- --- 10 --- | N 28 --- | 0.0 | 1015 | 0.4
22:00 Uhr | wolkig | 10 --- --- 9 --- | N 26 --- | 0.0 | 1016 | 0.2
23:00 Uhr | wolkig | 9 --- --- 8 | N 24 --- | 0.0 | 1016 | 0.0
00:00 Uhr | wolkig | 9 --- --- 8 11 | N 22 --- | 0.0 0.0 | 1017 | 0.0 6.2
Mittwoch - 29.05.2019
| Wetter - | Temperaturen | Wind | Niederschlag | Druck | Sonne
Zeit GZ | Bewölkung | TT MAX MIN TG TM | DD FF FX1 | RR1 RR24 | PPPP | SS1 SS24
01:00 Uhr | wolkig | 9 --- --- 8 --- | N 20 --- | 0.0 | 1018 | 0.0
02:00 Uhr | wolkig | 9 --- --- 7 --- | N 18 --- | 0.0 | 1018 | 0.0
03:00 Uhr | wolkig | 9 --- --- 7 --- | N 18 --- | 0.0 | 1018 | 0.0
04:00 Uhr | wolkig | 8 --- --- 7 --- | N 18 --- | 0.0 | 1019 | 0.0
05:00 Uhr | wolkig | 9 --- --- 8 --- | NW 17 --- | 0.0 | 1019 | 0.0
06:00 Uhr | wolkig | 9 --- --- 8 --- | NW 17 --- | 0.0 | 1020 | 0.1
07:00 Uhr | wolkig | 9 --- --- 9 --- | NW 15 --- | 0.0 | 1020 | 0.3
08:00 Uhr | wolkig | 10 --- 8 10 --- | NW 15 --- | 0.0 | 1021 | 0.4
09:00 Uhr | wolkig | 11 --- --- 12 --- | NW 13 --- | 0.0 | 1021 | 0.5
10:00 Uhr | wolkig | 11 --- --- 15 --- | NW 11 --- | 0.0 | 1022 | 0.5
11:00 Uhr | wolkig | 12 --- --- 17 --- | NW 11 --- | 0.0 | 1022 | 0.5
12:00 Uhr | wolkig | 13 --- --- 18 --- | NW 11 --- | 0.0 | 1022 | 0.7
13:00 Uhr | wolkig | 13 --- --- 19 --- | NW 13 --- | 0.0 | 1022 | 0.7
14:00 Uhr | wolkig | 14 --- --- 19 --- | NW 13 --- | 0.0 | 1022 | 0.7
15:00 Uhr | wolkig | 14 --- --- 19 --- | NW 13 --- | 0.0 | 1022 | 0.7
16:00 Uhr | wolkig | 14 --- --- 19 --- | N 13 --- | 0.0 | 1022 | 0.7
17:00 Uhr | wolkig | 14 --- --- 18 --- | NO 15 --- | 0.0 | 1021 | 0.6
18:00 Uhr | wolkig | 14 --- --- 17 --- | O 13 --- | 0.0 | 1021 | 0.6
19:00 Uhr | wolkig | 14 --- --- 16 --- | SO 13 --- | 0.0 | 1020 | 0.5
20:00 Uhr | wolkig | 14 16 --- 14 --- | SO 13 --- | 0.0 | 1020 | 0.5
21:00 Uhr | wolkig | 13 --- --- 13 --- | SO 13 --- | 0.0 | 1020 | 0.3
22:00 Uhr | wolkig | 13 --- --- 12 --- | SO 11 --- | 0.0 | 1020 | 0.2
23:00 Uhr | wolkig | 13 --- --- 11 | SO 15 --- | 0.0 | 1020 | 0.0
00:00 Uhr | wolkig | 12 --- --- 11 12 | S 15 --- | 0.0 0.0 | 1020 | 0.0 8.4
Donnerstag - 30.05.2019
| Wetter - | Temperaturen | Wind | Niederschlag | Druck | Sonne
Zeit GZ | Bewölkung | TT MAX MIN TG TM | DD FF FX3 | RR3 RR24 | PPPP | SS3 SS24
02:00 Uhr | stark bewölkt | 12 --- --- 11 --- | S 17 --- | 0.0 | 1019 | 0.0
05:00 Uhr | stark bewölkt | 12 --- --- 11 --- | S 20 --- | 0.0 | 1018 | 0.0
08:00 Uhr | stark bewölkt | 12 --- 11 12 --- | S 22 --- | 0.0 | 1017 | 0.2
11:00 Uhr | stark bewölkt | 14 --- --- 16 --- | SW 20 41 | 0.0 | 1017 | 0.2
14:00 Uhr | leichter Regen | 15 --- --- 17 --- | SW 20 41 | 1.2 | 1019 | 0.5
17:00 Uhr | leichter Regen | 15 --- --- 16 --- | W 18 --- | 1.1 | 1020 | 0.6
20:00 Uhr | stark bewölkt | 14 16 --- 15 --- | W 17 --- | 0.0 | 1020 | 0.4
23:00 Uhr | bedeckt | 14 --- --- 14 14 | W 17 --- | 0.0 2.3 | 1021 | 0.1 1.8
Freitag - 31.05.2019
| Wetter - | Temperaturen | Wind | Niederschlag | Druck | Sonne
Zeit GZ | Bewölkung | TT MAX MIN TG TM | DD FF FX3 | RR3 RR24 | PPPP | SS3 SS24
02:00 Uhr | bedeckt | 14 --- --- 13 --- | SW 18 --- | 0.0 | 1020 | 0.0
05:00 Uhr | bedeckt | 14 --- --- 13 --- | SW 18 --- | 0.0 | 1021 | 0.0
08:00 Uhr | stark bewölkt | 14 --- 13 15 --- | W 18 --- | 0.0 | 1021 | 0.2
11:00 Uhr | stark bewölkt | 16 --- --- 18 --- | W 20 --- | 0.0 | 1022 | 0.6
14:00 Uhr | wolkig | 16 --- --- 20 --- | W 18 --- | 0.0 | 1023 | 1.0
17:00 Uhr | wolkig | 16 --- --- 18 --- | W 18 --- | 0.0 | 1024 | 1.2
20:00 Uhr | wolkig | 15 17 --- 16 --- | NW 17 --- | 0.0 | 1024 | 0.8
23:00 Uhr | wolkig | 14 --- --- 13 15 | NW 15 --- | 0.0 0.0 | 1024 | 0.2 4.0
Samstag - 01.06.2019
| Wetter - | Temperaturen | Wind | Niederschlag | Druck | Sonne
Zeit GZ | Bewölkung | TT MAX MIN TG TM | DD FF FX3 | RR3 RR24 | PPPP | SS3 SS24
02:00 Uhr | wolkig | 13 --- --- 12 --- | W 15 --- | 0.0 | 1024 | 0.0
05:00 Uhr | stark bewölkt | 13 --- --- 12 --- | SW 15 --- | 0.0 | 1024 | 0.0
08:00 Uhr | wolkig | 14 --- 13 16 --- | SW 17 --- | 0.0 | 1024 | 0.6
11:00 Uhr | wolkig | 16 --- --- 21 --- | SW 17 --- | 0.0 | 1024 | 1.2
14:00 Uhr | wolkig | 18 --- --- 23 --- | NW 17 --- | 0.0 | 1023 | 1.7
17:00 Uhr | wolkig | 18 --- --- 22 --- | NW 17 --- | 0.0 | 1022 | 1.8
20:00 Uhr | wolkig | 17 19 --- 18 --- | NW 17 --- | 0.0 | 1022 | 1.6
23:00 Uhr | wolkig | 15 --- --- 15 16 | NW 15 --- | 0.0 0.0 | 1021 | 0.6 7.4
Sonntag - 02.06.2019
| Wetter - | Temperaturen | Wind | Niederschlag | Druck | Sonne
Zeit GZ | Bewölkung | TT MAX MIN TG TM | DD FF FX3 | RR3 RR24 | PPPP | SS3 SS24
02:00 Uhr | wolkig | 14 --- --- 14 --- | SW 17 --- | 0.0 | 1020 | 0.0
05:00 Uhr | wolkig | 14 --- --- 14 --- | S 17 --- | 0.0 | 1019 | 0.0
08:00 Uhr | wolkig | 15 --- 14 16 --- | SW 17 --- | 0.0 | 1018 | 0.9
11:00 Uhr | wolkig | 18 --- --- 21 --- | SW 17 --- | 0.0 | 1018 | 1.6
14:00 Uhr | wolkig | 20 --- --- 24 --- | NW 18 --- | 0.0 | 1017 | 1.9
17:00 Uhr | wolkig | 20 --- --- 22 --- | N 20 --- | 0.0 | 1016 | 1.9
20:00 Uhr | wolkig | 18 22 --- 19 --- | NO 17 --- | 0.0 | 1014 | 1.6
23:00 Uhr | wolkig | 17 --- --- 16 17 | SO 18 --- | 0.0 0.0 | 1014 | 0.6 8.4
Montag - 03.06.2019
| Wetter - | Temperaturen | Wind | Niederschlag | Druck | Sonne
Zeit GZ | Bewölkung | TT MAX MIN TG TM | DD FF FX3 | RR3 RR24 | PPPP | SS3 SS24
02:00 Uhr | wolkig | 16 --- --- 15 --- | S 17 --- | 0.0 | 1014 | 0.0
05:00 Uhr | wolkig | 15 --- --- 14 --- | S 18 --- | 0.0 | 1013 | 0.0
08:00 Uhr | wolkig | 16 --- 15 16 --- | SW 18 --- | 0.0 | 1013 | 0.7
11:00 Uhr | wolkig | 17 --- --- 21 --- | SW 20 --- | 0.0 | 1014 | 1.5
14:00 Uhr | wolkig | 18 --- --- 23 --- | NW 20 --- | 0.0 | 1014 | 1.8
17:00 Uhr | wolkig | 18 --- --- 22 --- | NW 22 --- | 0.0 | 1014 | 1.8
20:00 Uhr | wolkig | 16 19 --- 17 --- | NW 24 --- | 0.0 | 1014 | 1.5
23:00 Uhr | wolkig | 16 --- --- 15 16 | NW 20 --- | 0.0 0.0 | 1014 | 0.5 7.7
Dienstag - 04.06.2019
| Wetter - | Temperaturen | Wind | Niederschlag | Druck | Sonne
Zeit GZ | Bewölkung | TT MAX MIN TG TM | DD FF FX3 | RR3 RR24 | PPPP | SS3 SS24
02:00 Uhr | wolkig | 15 --- --- 14 --- | NW 20 --- | 0.0 | 1013 | 0.0
05:00 Uhr | wolkig | 15 --- --- 13 --- | NW 18 --- | 0.0 | 1012 | 0.0
08:00 Uhr | wolkig | 15 --- 14 16 --- | NW 22 --- | 0.0 | 1012 | 0.7
11:00 Uhr | wolkig | 16 --- --- 20 --- | NW 22 --- | 0.0 | 1012 | 1.3
14:00 Uhr | wolkig | 17 --- --- 21 --- | NW 22 --- | 0.0 | 1012 | 1.5
17:00 Uhr | wolkig | 17 --- --- 20 --- | NW 22 --- | 0.0 | 1012 | 1.7
20:00 Uhr | wolkig | 16 19 --- 17 --- | NW 24 --- | 0.0 | 1012 | 1.3
23:00 Uhr | wolkig | 16 --- --- 14 16 | NW 22 --- | 0.0 0.0 | 1012 | 0.4 6.9
Mittwoch - 05.06.2019
| Wetter - | Temperaturen | Wind | Niederschlag | Druck | Sonne
Zeit GZ | Bewölkung | TT MAX MIN TG TM | DD FF FX3 | RR3 RR24 | PPPP | SS3 SS24
02:00 Uhr | wolkig | 15 --- --- 14 --- | NW 20 --- | 0.0 | 1012 | 0.0
05:00 Uhr | wolkig | 14 --- --- 14 --- | NW 20 --- | 0.0 | 1012 | 0.0
08:00 Uhr | wolkig | 15 --- 14 16 --- | N 20 --- | 0.0 | 1012 | 0.5
11:00 Uhr | wolkig | 16 --- --- 20 --- | N 22 --- | 0.0 | 1013 | 1.5
14:00 Uhr | wolkig | 17 --- --- 21 --- | N 22 --- | 0.0 | 1013 | 1.7
17:00 Uhr | wolkig | 17 --- --- 20 --- | NW 24 --- | 0.0 | 1013 | 1.7
20:00 Uhr | wolkig | 15 18 --- 17 --- | NW 24 --- | 0.0 | 1013 | 1.4
23:00 Uhr | wolkig | 15 --- --- 14 15 | NW 20 --- | 0.0 0.0 | 1014 | 0.3 7.1
Donnerstag - 06.06.2019
| Wetter - | Temperaturen | Wind | Niederschlag | Druck | Sonne
Zeit GZ | Bewölkung | TT MAX MIN TG TM | DD FF FX3 | RR3 RR24 | PPPP | SS3 SS24
02:00 Uhr | wolkig | 15 --- --- 14 --- | NW 20 --- | 0.0 | 1014 | 0.0
05:00 Uhr | wolkig | 14 --- --- 13 --- | NW 22 --- | 0.0 | 1014 | 0.0
08:00 Uhr | wolkig | 14 --- 13 15 --- | W 20 --- | 0.0 | 1013 | 0.5
11:00 Uhr | wolkig | 15 --- --- 18 --- | W 24 --- | 0.0 | 1014 | 1.0
---:00 Uhr | --- | --- --- --- --- --- | --- --- --- | --- | --- | ---
---:00 Uhr | --- | --- --- --- --- --- | --- --- --- | --- | --- | ---
---:00 Uhr | --- | --- --- --- --- --- | --- --- --- | --- | --- | ---
---:00 Uhr | --- | --- --- --- --- --- | --- --- --- | --- --- | --- | ---


Wetter : Wetter/Bewölkung zum Termin (aktuelle Stunde) TT : Lufttemperatur in Grad Celsius zum Termin MAX : Maximum Lufttemperatur in Grad Celsius letzte 12 Stunden MIN : Minimum Lufttemperatur der vergangenen Nacht in Grad Celsius letzte 12 Stunden TG : Temperatur in 5cm überm Erdboden TM : Tagesmittel Lufttemperatur in Grad Celsius letzte 24 Stunden DD : Windrichtung zum Termin FF : Windgeschwindigkeit zum Termin FX1 : höchste Windspitze im Bezugszeitraum letzte 1 Stunde in km/h FX3 : höchste Windspitze im Bezugszeitraum letzte 3 Stunden in km/h PPPP : reduzierter Luftdruck auf Meereshöhe in hPa zum Termin RR1 : Niederschlagsmenge im Bezugszeitraum letzte 1 Stunde in mm = l/qm RR3 : Niederschlagsmenge im Bezugszeitraum letzte 3 Stunden in mm = l/qm RR24 : Niederschlagsmenge im Bezugszeitraum letzte 24 Stunden in mm = l/qm SS1 : Sonnenscheindauer letzte 1 Stunde SS3 : Sonnenscheindauer letzte 3 Stunden SS24 : Sonnenscheindauer letzte 24 Stunden --- : Wert nicht vorhanden